Zurück zum Katalog

IRIDE-MS2-HEO-1

AktivWissenschaftSSO
NORAD 62697·PAYLOAD·🇮🇹 Italy

Gestartet Jan 14, 2025 von Vandenberg Space Force Base

Loading…

Nächste Überflüge (nächste 24 Stunden)

TLE

AktuellSource: Space-Track

Epoche: Sep 14, 2026, 12:58 UTC

1 62697U 25009CS  26257.54057898  .00001101  00000-0  10674-3 0  9998
2 62697  97.6980 334.1749 0003677  78.8031 281.3602 14.94661725 90682

Verfolge IRIDE-MS2-HEO-1 in Echtzeit mit AllMySat

Download on the App Store